GW5118 Weather Reports


Display with metric or nautical units.
time (UTC)temp
F
wind
direction
speed
MPH
gust
MPH
rain 1hr
in
rain 24hr
in
rain mn
in
humidity
%
barometer
mb
20260508092657 36 345 0.0 1.0 0.00 0.00 0.00 98 1033.4
20260508092155 36 345 0.0 1.0 0.00 0.00 0.00 98 1033.3
20260508091652 36 235 0.0 1.0 0.00 0.00 0.00 98 1033.2
20260508091149 36 235 0.0 0.0 0.00 0.00 0.00 98 1033.2
20260508090647 36 235 0.0 0.0 0.00 0.00 0.00 98 1033.2
20260508090144 36 235 0.0 1.0 0.00 0.00 0.00 98 1033.2
20260508085639 36 235 0.0 0.0 0.00 0.00 0.00 98 1032.9
20260508085137 36 235 0.0 0.0 0.00 0.00 0.00 98 1033.1
20260508084633 36 235 0.0 0.0 0.00 0.00 0.00 98 1033.0
20260508084130 36 235 0.0 0.0 0.00 0.00 0.00 98 1033.0
20260508083628 36 235 0.0 0.0 0.00 0.00 0.00 98 1033.0
20260508083125 36 235 0.0 0.0 0.00 0.00 0.00 98 1032.9
20260508082620 36 235 0.0 0.0 0.00 0.00 0.00 98 1032.8
20260508082119 36 235 0.0 0.0 0.00 0.00 0.00 98 1033.0
20260508081615 36 235 0.0 0.0 0.00 0.00 0.00 98 1032.9
20260508081111 36 235 0.0 0.0 0.00 0.00 0.00 98 1032.7
20260508080609 36 235 0.0 0.0 0.00 0.00 0.00 98 1032.8
20260508080108 36 235 0.0 0.0 0.00 0.00 0.00 98 1032.8
20260508075603 36 235 0.0 0.0 0.00 0.00 0.00 97 1032.9
20260508075101 37 235 0.0 0.0 0.00 0.00 0.00 97 1032.8
20260508074559 37 235 0.0 0.0 0.00 0.00 0.00 97 1032.8
20260508074055 37 235 0.0 0.0 0.00 0.00 0.00 97 1032.8
20260508073553 37 235 0.0 0.0 0.00 0.00 0.00 97 1032.7
20260508073050 37 235 0.0 0.0 0.00 0.00 0.00 97 1032.7
20260508072545 37 231 0.0 0.0 0.00 0.00 0.00 97 1032.4
20260508072042 37 203 0.0 0.0 0.00 0.00 0.00 97 1032.4
20260508071540 37 203 0.0 0.0 0.00 0.00 0.00 97 1032.4
20260508071038 37 203 0.0 0.0 0.00 0.00 0.00 97 1032.5
20260508070535 37 203 0.0 0.0 0.00 0.00 0.00 97 1032.5
20260508070035 37 203 0.0 0.0 0.00 0.00 0.00 97 1032.7
20260508065531 37 203 0.0 0.0 0.00 0.00 0.00 97 1032.5
20260508065030 37 203 0.0 0.0 0.00 0.00 0.00 97 1032.4
20260508064526 38 203 0.0 0.0 0.00 0.00 0.00 97 1032.7
20260508064024 38 203 0.0 0.0 0.00 0.00 0.00 97 1032.7
20260508063521 39 203 0.0 0.0 0.00 0.00 0.00 97 1032.5
20260508063019 39 203 0.0 0.0 0.00 0.00 0.00 97 1032.7
20260508062516 39 203 0.0 0.0 0.00 0.00 0.00 97 1032.8
20260508062013 39 203 0.0 0.0 0.00 0.00 0.00 96 1032.5
20260508061511 39 203 0.0 0.0 0.00 0.00 0.00 96 1032.8
20260508061007 39 203 1.0 1.0 0.00 0.00 0.00 96 1032.9
20260508060504 39 202 1.0 1.0 0.00 0.00 0.00 96 1032.7
20260508060001 39 203 1.0 1.0 0.00 0.00 0.00 96 1032.7
20260508055457 40 203 0.0 0.0 0.00 0.00 0.00 96 1032.9
20260508054953 40 202 1.0 1.0 0.00 0.00 0.00 96 1032.8
20260508054450 40 212 1.0 1.0 0.00 0.00 0.00 95 1032.9
20260508053947 40 215 1.0 1.0 0.00 0.00 0.00 95 1032.5
20260508053444 40 216 1.0 1.0 0.00 0.00 0.00 95 1032.7
20260508052942 41 216 1.0 1.0 0.00 0.00 0.00 95 1032.5
20260508052439 40 199 0.0 0.0 0.00 0.00 0.00 95 1032.5
20260508051936 40 199 0.0 0.0 0.00 0.00 0.00 94 1032.3
20260508051431 40 199 0.0 0.0 0.00 0.00 0.00 94 1032.2
20260508050928 40 199 0.0 0.0 0.00 0.00 0.00 94 1032.1
20260508050424 41 199 0.0 0.0 0.00 0.00 0.00 93 1032.2
20260508045921 41 199 0.0 0.0 0.00 0.00 0.00 93 1032.0
20260508045418 41 199 0.0 0.0 0.00 0.00 0.00 93 1031.8
20260508044916 42 199 0.0 0.0 0.00 0.00 0.00 92 1031.7
20260508044413 42 199 1.0 2.0 0.00 0.00 0.00 91 1031.9
20260508043908 42 200 0.0 1.0 0.00 0.00 0.00 90 1031.9
20260508043406 42 200 0.0 0.0 0.00 0.00 0.00 89 1031.9
20260508042902 43 200 0.0 0.0 0.00 0.00 0.00 88 1031.9
20260508042400 43 200 0.0 1.0 0.00 0.00 0.00 88 1031.9
20260508041856 43 200 1.0 1.0 0.00 0.00 0.00 90 1031.8
20260508041353 43 200 1.0 1.0 0.00 0.00 0.00 90 1031.9
20260508040849 44 200 1.0 1.0 0.00 0.00 0.00 88 1031.9
20260508040347 45 200 1.0 2.0 0.00 0.00 0.00 86 1031.8
20260508035844 46 201 2.0 2.0 0.00 0.00 0.00 83 1031.7
20260508035341 47 310 0.0 1.0 0.00 0.00 0.00 73 1031.5
20260508034838 46 311 2.0 3.0 0.00 0.00 0.00 75 1031.5
20260508034335 45 298 2.0 2.0 0.00 0.00 0.00 78 1031.6
20260508033832 46 251 0.0 1.0 0.00 0.00 0.00 78 1031.5
20260508033330 47 251 1.0 2.0 0.00 0.00 0.00 75 1031.6
20260508032827 47 318 0.0 1.0 0.00 0.00 0.00 72 1031.6
20260508032325 47 318 0.0 0.0 0.00 0.00 0.00 72 1031.7
20260508031821 47 318 0.0 0.0 0.00 0.00 0.00 72 1031.4
20260508031318 48 318 1.0 2.0 0.00 0.00 0.00 72 1031.6
20260508030814 48 318 1.0 1.0 0.00 0.00 0.00 69 1031.2
20260508030312 49 311 0.0 2.0 0.00 0.00 0.00 68 1031.2
20260508025808 49 283 0.0 0.0 0.00 0.00 0.00 68 1031.3
20260508025306 49 309 0.0 2.0 0.00 0.00 0.00 67 1031.0
20260508024801 50 306 0.0 3.0 0.00 0.00 0.00 66 1031.2
20260508024258 50 323 0.0 3.0 0.00 0.00 0.00 66 1030.9
20260508023755 50 326 2.0 2.0 0.00 0.00 0.00 65 1030.9
20260508023253 50 311 2.0 3.0 0.00 0.00 0.00 65 1031.0
20260508022748 50 313 2.0 2.0 0.00 0.00 0.00 65 1030.9
20260508022245 50 287 0.0 2.0 0.00 0.00 0.00 65 1030.9
20260508021742 51 313 2.0 2.0 0.00 0.00 0.00 64 1030.7
20260508021237 51 331 3.0 4.0 0.00 0.00 0.00 64 1030.7
20260508020735 51 323 2.0 3.0 0.00 0.00 0.00 63 1030.5
20260508020232 51 309 2.0 3.0 0.00 0.00 0.00 63 1030.3
20260508015729 52 328 4.0 6.0 0.00 0.00 0.00 63 1030.4
20260508015226 52 338 4.0 6.0 0.00 0.00 0.00 62 1030.4
20260508014723 52 315 1.0 2.0 0.00 0.00 0.00 63 1030.4
20260508014220 52 291 0.0 3.0 0.00 0.00 0.00 62 1030.2
20260508013715 52 309 1.0 2.0 0.00 0.00 0.00 63 1030.3
20260508013212 52 295 2.0 4.0 0.00 0.00 0.00 62 1030.0
20260508012710 52 328 4.0 7.0 0.00 0.00 0.00 62 1030.1
20260508012206 52 296 1.0 3.0 0.00 0.00 0.00 63 1029.9
20260508011705 52 318 3.0 4.0 0.00 0.00 0.00 62 1029.8
20260508011202 53 305 1.0 2.0 0.00 0.00 0.00 62 1030.1
20260508010658 53 295 0.0 2.0 0.00 0.00 0.00 62 1029.6
20260508010156 53 262 0.0 2.0 0.00 0.00 0.00 62 1029.7
20260508005653 53 248 2.0 4.0 0.00 0.00 0.00 62 1029.8
20260508005150 53 261 1.0 1.0 0.00 0.00 0.00 63 1029.8
20260508004646 53 329 1.0 2.0 0.00 0.00 0.00 62 1029.7
20260508004142 54 271 0.0 2.0 0.00 0.00 0.00 62 1029.3
20260508003639 54 276 0.0 2.0 0.00 0.00 0.00 62 1029.4
20260508003136 54 310 2.0 2.0 0.00 0.00 0.00 62 1029.4
20260508002633 54 272 0.0 1.0 0.00 0.00 0.00 61 1029.6
20260508002131 55 319 4.0 6.0 0.00 0.00 0.00 59 1029.2
20260508001625 55 257 0.0 1.0 0.00 0.00 0.00 60 1029.4
20260508001122 55 276 2.0 2.0 0.00 0.00 0.00 60 1029.2
20260508000617 55 283 1.0 1.0 0.00 0.00 0.00 60 1029.2
20260508000115 56 271 2.0 3.0 0.00 0.00 0.00 59 1029.1
20260507235612 56 284 1.0 2.0 0.00 0.00 0.00 58 1029.1
20260507235109 56 210 2.0 9.0 0.00 0.00 0.00 57 1029.2
20260507234606 56 276 0.0 1.0 0.00 0.00 0.00 59 1029.1
20260507234102 56 293 1.0 3.0 0.00 0.00 0.00 59 1029.0
20260507233559 56 255 2.0 3.0 0.00 0.00 0.00 59 1028.8
20260507233058 56 317 3.0 6.0 0.00 0.00 0.00 58 1029.0
20260507232553 56 336 4.0 4.0 0.00 0.00 0.00 58 1028.9
20260507232051 57 310 2.0 4.0 0.00 0.00 0.00 57 1028.8
20260507231547 57 0 1.0 7.0 0.00 0.00 0.00 58 1029.0
20260507231045 57 318 2.0 3.0 0.00 0.00 0.00 58 1028.7
20260507230541 57 310 4.0 6.0 0.00 0.00 0.00 56 1028.7
20260507230038 59 315 8.0 11.0 0.00 0.00 0.00 54 1028.7
20260507225533 60 355 2.0 7.0 0.00 0.00 0.00 52 1028.8
20260507225030 60 254 1.0 2.0 0.00 0.00 0.00 55 1028.7
20260507224525 60 267 2.0 4.0 0.00 0.00 0.00 54 1028.6
20260507224022 58 246 0.0 2.0 0.00 0.00 0.00 57 1028.7
20260507223519 58 268 0.0 2.0 0.00 0.00 0.00 59 1028.5
20260507223016 58 275 1.0 2.0 0.00 0.00 0.00 58 1028.6
20260507222513 58 259 1.0 4.0 0.00 0.00 0.00 57 1028.6
20260507222009 58 306 2.0 2.0 0.00 0.00 0.00 58 1028.4
20260507221505 58 278 2.0 4.0 0.00 0.00 0.00 55 1028.4
20260507221002 60 271 2.0 3.0 0.00 0.00 0.00 54 1028.5
20260507220500 61 231 0.0 3.0 0.00 0.00 0.00 54 1028.3
20260507215956 60 225 1.0 3.0 0.00 0.00 0.00 54 1028.4
20260507215452 60 280 1.0 4.0 0.00 0.00 0.00 55 1028.4
20260507214950 61 219 1.0 4.0 0.00 0.00 0.00 53 1028.3
20260507214448 61 254 2.0 4.0 0.00 0.00 0.00 53 1028.2
20260507213943 60 248 1.0 4.0 0.00 0.00 0.00 54 1028.3
20260507213440 59 267 4.0 6.0 0.00 0.00 0.00 55 1028.3
20260507212937 59 271 0.0 3.0 0.00 0.00 0.00 58 1028.2
20260507212432 58 263 1.0 3.0 0.00 0.00 0.00 58 1027.9
20260507211930 59 267 3.0 6.0 0.00 0.00 0.00 57 1028.1
20260507211426 59 277 3.0 4.0 0.00 0.00 0.00 56 1027.9
20260507210923 58 273 3.0 4.0 0.00 0.00 0.00 58 1027.8
20260507210420 58 326 3.0 9.0 0.00 0.00 0.00 59 1027.8
20260507205917 58 351 3.0 7.0 0.00 0.00 0.00 58 1027.8
20260507205414 58 348 6.0 10.0 0.00 0.00 0.00 59 1027.8
20260507204910 61 268 2.0 6.0 0.00 0.00 0.00 55 1027.8
20260507204406 60 270 2.0 7.0 0.00 0.00 0.00 57 1027.7
20260507203904 60 223 5.0 11.0 0.00 0.00 0.00 57 1027.8
20260507203402 60 219 6.0 14.0 0.00 0.00 0.00 54 1027.8
20260507202858 60 237 8.0 9.0 0.00 0.00 0.00 54 1027.9
20260507202355 60 291 3.0 10.0 0.00 0.00 0.00 56 1028.1
20260507201850 59 310 3.0 8.0 0.00 0.00 0.00 58 1028.1
20260507201346 59 285 4.0 7.0 0.00 0.00 0.00 60 1027.9
20260507200842 57 317 5.0 8.0 0.00 0.00 0.00 64 1028.1
20260507200338 57 337 9.0 18.0 0.00 0.00 0.00 62 1027.9
20260507195835 57 341 10.0 14.0 0.00 0.00 0.00 61 1027.8
20260507195332 59 328 6.0 9.0 0.00 0.00 0.00 59 1027.8
20260507194829 63 216 7.0 10.0 0.00 0.00 0.00 53 1027.9
20260507194325 63 337 5.0 8.0 0.00 0.00 0.00 57 1027.6
20260507193822 63 326 3.0 9.0 0.00 0.00 0.00 55 1027.9
20260507193320 64 280 6.0 8.0 0.00 0.00 0.00 53 1027.9
20260507192814 62 324 3.0 4.0 0.00 0.00 0.00 58 1028.1
20260507192312 60 309 2.0 4.0 0.00 0.00 0.00 61 1027.9
20260507191808 58 7 4.0 9.0 0.00 0.00 0.00 63 1028.3
20260507191305 59 1 2.0 9.0 0.00 0.00 0.00 60 1028.2
20260507190802 60 257 2.0 3.0 0.00 0.00 0.00 57 1028.4
20260507190300 60 235 3.0 6.0 0.00 0.00 0.00 58 1028.4
20260507185758 58 291 5.0 8.0 0.00 0.00 0.00 59 1028.4
20260507185254 58 278 1.0 3.0 0.00 0.00 0.00 61 1028.6
20260507184752 58 260 4.0 6.0 0.00 0.00 0.00 61 1028.7
20260507184250 58 234 2.0 6.0 0.00 0.00 0.00 61 1028.7
20260507183747 58 276 4.0 4.0 0.00 0.00 0.00 59 1028.8
20260507183243 59 259 2.0 4.0 0.00 0.00 0.00 62 1028.6
20260507182741 58 222 3.0 7.0 0.00 0.00 0.00 61 1028.4
20260507182236 58 275 2.0 3.0 0.00 0.00 0.00 64 1028.3
20260507181733 58 301 1.0 2.0 0.00 0.00 0.00 66 1028.6
20260507181229 58 340 4.0 8.0 0.00 0.00 0.00 62 1028.6
20260507180726 58 4 2.0 3.0 0.00 0.00 0.00 64 1028.5
20260507180223 58 338 5.0 7.0 0.00 0.00 0.00 64 1028.5
20260507175718 58 298 4.0 4.0 0.00 0.00 0.00 66 1028.6
20260507175215 57 250 4.0 6.0 0.00 0.00 0.00 65 1028.9
20260507174713 56 311 3.0 8.0 0.00 0.00 0.00 66 1028.8
20260507174211 57 10 5.0 9.0 0.00 0.00 0.00 65 1028.7
20260507173708 57 316 7.0 9.0 0.00 0.00 0.00 64 1028.5
20260507173205 58 349 3.0 9.0 0.00 0.00 0.00 65 1028.6
20260507172702 57 269 0.0 3.0 0.00 0.00 0.00 68 1028.7
20260507172159 56 315 1.0 6.0 0.00 0.00 0.00 69 1028.7
20260507171658 56 36 4.0 7.0 0.00 0.00 0.00 67 1028.9
20260507171156 57 338 7.0 13.0 0.00 0.00 0.00 67 1028.9
20260507170653 56 351 7.0 8.0 0.00 0.00 0.00 67 1028.9
20260507170150 56 346 8.0 13.0 0.00 0.00 0.00 69 1028.9
20260507165645 56 327 4.0 8.0 0.00 0.00 0.00 68 1028.9
20260507165142 57 336 9.0 10.0 0.00 0.00 0.00 69 1028.9
20260507164638 55 226 4.0 4.0 0.00 0.00 0.00 70 1028.9
20260507164135 55 332 6.0 9.0 0.00 0.00 0.00 71 1029.2
20260507163632 55 340 7.0 9.0 0.00 0.00 0.00 71 1029.3
20260507163130 55 26 4.0 6.0 0.00 0.00 0.00 69 1029.2
20260507162626 54 336 4.0 6.0 0.00 0.00 0.00 72 1029.2
20260507162122 54 229 1.0 4.0 0.00 0.00 0.00 73 1029.2
20260507161618 55 200 2.0 4.0 0.00 0.00 0.00 72 1029.4
20260507161115 54 271 2.0 3.0 0.00 0.00 0.00 74 1029.6
20260507160612 54 352 2.0 4.0 0.00 0.00 0.00 77 1029.4
20260507160108 54 18 4.0 6.0 0.00 0.00 0.00 75 1029.6
20260507155603 54 344 5.0 7.0 0.00 0.00 0.00 77 1029.6
20260507155100 53 333 2.0 8.0 0.00 0.00 0.00 76 1029.3
20260507154557 54 345 6.0 9.0 0.00 0.00 0.00 79 1029.4
20260507154054 52 274 1.0 3.0 0.00 0.00 0.00 79 1029.6
20260507153551 52 359 1.0 4.0 0.00 0.00 0.00 80 1029.7
20260507153048 52 338 4.0 6.0 0.00 0.00 0.00 78 1029.9
20260507152543 52 333 2.0 6.0 0.00 0.00 0.00 79 1029.7
20260507152040 52 319 2.0 3.0 0.00 0.00 0.00 80 1029.4
20260507151536 51 317 2.0 2.0 0.00 0.00 0.00 81 1029.9
20260507151033 51 311 4.0 6.0 0.00 0.00 0.00 81 1029.7
20260507150530 51 6 1.0 3.0 0.00 0.00 0.00 81 1029.9
20260507150027 51 13 0.0 2.0 0.00 0.00 0.00 81 1029.9
20260507145522 51 355 2.0 6.0 0.00 0.00 0.00 81 1029.8
20260507145020 50 6 4.0 6.0 0.00 0.00 0.00 81 1029.9
20260507144516 50 278 1.0 3.0 0.00 0.00 0.00 81 1029.8
20260507144014 50 291 1.0 3.0 0.00 0.00 0.00 81 1029.9
20260507143511 50 346 2.0 4.0 0.00 0.00 0.00 82 1029.9
20260507143008 50 307 1.0 7.0 0.00 0.00 0.00 83 1030.1
20260507142503 50 325 2.0 7.0 0.00 0.00 0.00 83 1029.9
20260507142001 50 319 2.0 4.0 0.00 0.00 0.00 83 1030.0
20260507141456 50 349 5.0 7.0 0.00 0.00 0.00 83 1029.9
20260507140953 50 309 1.0 8.0 0.00 0.00 0.00 83 1030.0
20260507140450 50 27 2.0 6.0 0.00 0.00 0.00 83 1029.8
20260507135948 50 341 4.0 6.0 0.00 0.00 0.00 84 1030.0
20260507135444 50 324 1.0 3.0 0.00 0.00 0.00 85 1030.0
20260507134942 50 335 2.0 4.0 0.00 0.00 0.00 85 1029.9
20260507134438 49 284 1.0 6.0 0.00 0.00 0.00 85 1030.1
20260507133934 49 335 1.0 6.0 0.00 0.00 0.00 84 1030.2
20260507133430 49 339 2.0 7.0 0.00 0.00 0.00 84 1030.3
20260507132929 49 316 6.0 8.0 0.00 0.00 0.00 85 1030.3
20260507132425 49 334 4.0 7.0 0.00 0.00 0.00 85 1030.3
20260507131921 50 305 2.0 8.0 0.00 0.00 0.00 86 1030.4
20260507131418 50 334 2.0 3.0 0.00 0.00 0.00 87 1030.3
20260507130915 50 350 2.0 6.0 0.00 0.00 0.00 86 1030.2
20260507130412 50 36 2.0 2.0 0.00 0.00 0.00 86 1030.4
20260507125911 50 267 1.0 2.0 0.00 0.00 0.00 87 1030.4
20260507125409 50 338 1.0 3.0 0.00 0.00 0.00 87 1030.6
20260507124906 50 321 1.0 2.0 0.00 0.00 0.00 88 1030.3
20260507124401 50 319 2.0 3.0 0.00 0.00 0.00 88 1030.3
20260507123900 50 325 2.0 3.0 0.00 0.00 0.00 88 1030.3
20260507123357 50 265 1.0 2.0 0.00 0.00 0.00 88 1030.3
20260507122853 50 245 0.0 3.0 0.00 0.00 0.00 88 1030.3
20260507122349 50 303 2.0 3.0 0.00 0.00 0.00 88 1030.3
20260507121845 49 311 3.0 4.0 0.00 0.00 0.00 88 1030.0
20260507121341 50 301 3.0 6.0 0.00 0.00 0.00 88 1029.9
20260507120838 50 326 4.0 7.0 0.00 0.00 0.00 88 1030.2
20260507120334 50 319 2.0 3.0 0.00 0.00 0.00 88 1030.1
20260507115831 50 328 4.0 7.0 0.00 0.00 0.00 88 1030.1
20260507115326 50 339 4.0 4.0 0.00 0.00 0.00 88 1029.9
20260507114822 50 270 1.0 3.0 0.00 0.00 0.00 88 1029.8
20260507114319 50 324 5.0 8.0 0.00 0.00 0.00 88 1029.9
20260507113817 50 338 3.0 6.0 0.00 0.00 0.00 89 1029.9
20260507113314 50 333 5.0 8.0 0.00 0.00 0.00 89 1030.0
20260507112811 50 317 2.0 4.0 0.00 0.00 0.00 90 1029.8
20260507112308 50 335 3.0 3.0 0.00 0.00 0.00 90 1030.0
20260507111806 50 310 3.0 3.0 0.00 0.00 0.00 90 1029.8
20260507111302 50 335 4.0 6.0 0.00 0.00 0.00 91 1029.6
20260507110758 50 339 2.0 4.0 0.00 0.00 0.00 92 1029.7
20260507110255 50 336 3.0 3.0 0.00 0.00 0.00 92 1029.4
20260507105752 50 301 4.0 6.0 0.00 0.00 0.00 92 1029.1
20260507105248 50 327 3.0 6.0 0.00 0.00 0.00 93 1029.6
20260507104745 50 318 2.0 3.0 0.00 0.00 0.00 94 1029.4
20260507104242 50 333 5.0 8.0 0.00 0.00 0.00 94 1029.3
20260507103738 50 331 5.0 8.0 0.00 0.00 0.00 95 1029.2
20260507103234 51 325 7.0 9.0 0.00 0.00 0.00 95 1029.3
20260507102730 51 334 4.0 6.0 0.00 0.00 0.00 95 1029.0
20260507102227 51 333 2.0 2.0 0.00 0.00 0.00 95 1029.2
20260507101723 51 281 0.0 0.0 0.00 0.00 0.00 95 1029.1
20260507101219 51 281 0.0 2.0 0.00 0.00 0.00 95 1029.2
20260507100716 51 333 2.0 6.0 0.00 0.00 0.00 95 1029.0
20260507100214 51 339 4.0 4.0 0.00 0.00 0.00 95 1028.9
20260507095712 51 336 2.0 3.0 0.00 0.00 0.00 95 1029.0
20260507095208 51 114 0.0 0.0 0.00 0.00 0.00 95 1029.0
20260507094705 51 114 0.0 0.0 0.00 0.00 0.00 95 1028.9
20260507094202 51 110 1.0 1.0 0.00 0.00 0.00 95 1028.9
20260507093659 51 187 0.0 1.0 0.00 0.00 0.00 95 1029.2
20260507093158 51 224 1.0 1.0 0.00 0.00 0.00 96 1029.2